When you browse on this site, cookies collect data to enhance your experience and personalize the content and advertising you see.
Visit our Privacy Policy to learn more. By continuing to use the site, you agree to this use of cookies and data.
  • In Schweiz
  • Länderverzeichnis
  • Für 7 Tage
  • Wassertemperatur
  • Wetterkarte
  • Widgets
  • user-avatar
    Anmelden

    Stündliche Wetter Onvervaht

    Heute, 15 Dezember, Sonntag

    Zeit Temperatur Niederschläge Wind Luftdruck Luftfeuchtigkeit
    00:00 +24°C° 0.1 mm 0 m/S 757 mmHg 98%
    01:00 +23°C° 0.1 mm 0 m/S 756 mmHg 98%
    02:00 +23°C° 0.1 mm 0 m/S 756 mmHg 99%
    03:00 +23°C° 0 mm 0 m/S 756 mmHg 99%
    04:00 +23°C° 0 mm 0 m/S 756 mmHg 98%
    05:00 +23°C° 0 mm 0 m/S 756 mmHg 98%
    06:00 +26°C° 0 mm 1 m/S 756 mmHg 93%
    07:00 +27°C° 0 mm 1 m/S 757 mmHg 88%
    08:00 +29°C° 0 mm 1 m/S 757 mmHg 83%
    09:00 +30°C° 0.7 mm 1 m/S 757 mmHg 80%
    10:00 +31°C° 0.7 mm 2 m/S 757 mmHg 76%
    11:00 +32°C° 0.7 mm 2 m/S 758 mmHg 73%
    12:00 +31°C° 2 mm 2 m/S 757 mmHg 77%
    13:00 +31°C° 2 mm 1 m/S 756 mmHg 82%
    14:00 +30°C° 2 mm 1 m/S 755 mmHg 86%
    15:00 +29°C° 0.5 mm 1 m/S 755 mmHg 87%
    16:00 +29°C° 0.5 mm 1 m/S 755 mmHg 88%
    17:00 +28°C° 0.5 mm 1 m/S 756 mmHg 89%
    18:00 +27°C° 0 mm 1 m/S 756 mmHg 91%
    19:00 +27°C° 0 mm 1 m/S 756 mmHg 93%
    20:00 +26°C° 0 mm 1 m/S 757 mmHg 95%
    21:00 +26°C° 0 mm 1 m/S 757 mmHg 96%
    22:00 +26°C° 0 mm 1 m/S 757 mmHg 97%
    23:00 +25°C° 0 mm 1 m/S 757 mmHg 97%

    Morgen, 16 Dezember, Montag

    Zeit Temperatur Niederschläge Wind Luftdruck Luftfeuchtigkeit
    00:00 +23°C° 0 mm 0 m/S 757 mmHg 98%
    01:00 +23°C° 0 mm 0 m/S 756 mmHg 98%
    02:00 +23°C° 0 mm 0 m/S 756 mmHg 98%
    03:00 +25°C° 0.1 mm 1 m/S 756 mmHg 98%
    04:00 +25°C° 0.1 mm 1 m/S 756 mmHg 97%
    05:00 +26°C° 0.1 mm 1 m/S 756 mmHg 97%
    06:00 +26°C° 0.1 mm 1 m/S 756 mmHg 93%
    07:00 +27°C° 0.1 mm 1 m/S 757 mmHg 89%
    08:00 +28°C° 0.1 mm 2 m/S 757 mmHg 85%
    09:00 +29°C° 1.2 mm 2 m/S 757 mmHg 86%
    10:00 +29°C° 1.2 mm 2 m/S 757 mmHg 86%
    11:00 +29°C° 1.2 mm 2 m/S 757 mmHg 87%
    12:00 +29°C° 1.9 mm 2 m/S 756 mmHg 87%
    13:00 +29°C° 1.9 mm 2 m/S 755 mmHg 87%
    14:00 +29°C° 1.9 mm 2 m/S 754 mmHg 88%
    15:00 +28°C° 0.8 mm 2 m/S 754 mmHg 90%
    16:00 +28°C° 0.8 mm 2 m/S 754 mmHg 92%
    17:00 +27°C° 0.8 mm 1 m/S 754 mmHg 95%
    18:00 +26°C° 0.1 mm 1 m/S 755 mmHg 96%
    19:00 +26°C° 0.1 mm 1 m/S 755 mmHg 96%
    20:00 +26°C° 0.1 mm 1 m/S 756 mmHg 97%
    21:00 +25°C° 0 mm 1 m/S 756 mmHg 97%
    22:00 +25°C° 0 mm 1 m/S 756 mmHg 97%
    23:00 +25°C° 0 mm 1 m/S 756 mmHg 98%

    übermorgen, 17 Dezember, Dienstag

    Zeit Temperatur Niederschläge Wind Luftdruck Luftfeuchtigkeit
    00:00 +25°C° 0 mm 1 m/S 756 mmHg 98%
    01:00 +25°C° 0 mm 1 m/S 755 mmHg 98%
    02:00 +25°C° 0 mm 1 m/S 755 mmHg 98%
    03:00 +25°C° 0 mm 1 m/S 755 mmHg 98%
    04:00 +24°C° 0 mm 1 m/S 755 mmHg 98%
    05:00 +24°C° 0 mm 1 m/S 755 mmHg 98%
    06:00 +25°C° 0 mm 1 m/S 756 mmHg 95%
    07:00 +26°C° 0 mm 1 m/S 756 mmHg 93%
    08:00 +27°C° 0 mm 1 m/S 757 mmHg 91%
    09:00 +29°C° 0 mm 2 m/S 757 mmHg 80%
    10:00 +30°C° 0 mm 2 m/S 757 mmHg 69%
    11:00 +33°C° 0 mm 3 m/S 757 mmHg 58%
    12:00 +33°C° 0.1 mm 3 m/S 756 mmHg 57%
    13:00 +34°C° 0.1 mm 3 m/S 755 mmHg 56%
    14:00 +34°C° 0.1 mm 3 m/S 754 mmHg 54%
    15:00 +31°C° 0 mm 3 m/S 754 mmHg 60%
    16:00 +30°C° 0 mm 2 m/S 754 mmHg 66%
    17:00 +29°C° 0 mm 2 m/S 754 mmHg 72%
    18:00 +28°C° 0 mm 2 m/S 754 mmHg 77%
    19:00 +27°C° 0 mm 2 m/S 755 mmHg 82%
    20:00 +26°C° 0 mm 1 m/S 756 mmHg 87%
    21:00 +26°C° 0 mm 1 m/S 756 mmHg 89%
    22:00 +25°C° 0 mm 1 m/S 756 mmHg 91%
    23:00 +25°C° 0 mm 1 m/S 756 mmHg 93%

    18 Dezember, Mittwoch

    Zeit Temperatur Niederschläge Wind Luftdruck Luftfeuchtigkeit
    00:00 +25°C° 0 mm 1 m/S 756 mmHg 94%
    01:00 +25°C° 0 mm 1 m/S 755 mmHg 95%
    02:00 +24°C° 0 mm 1 m/S 755 mmHg 96%
    03:00 +24°C° 0 mm 1 m/S 755 mmHg 96%
    04:00 +22°C° 0 mm 0 m/S 755 mmHg 96%
    05:00 +22°C° 0 mm 0 m/S 755 mmHg 97%
    06:00 +26°C° 0 mm 1 m/S 756 mmHg 89%
    07:00 +27°C° 0 mm 1 m/S 756 mmHg 82%
    08:00 +29°C° 0 mm 2 m/S 757 mmHg 75%
    09:00 +29°C° 0.7 mm 2 m/S 757 mmHg 78%
    10:00 +29°C° 0.7 mm 2 m/S 757 mmHg 81%
    11:00 +29°C° 0.7 mm 2 m/S 757 mmHg 83%
    12:00 +29°C° 1.8 mm 2 m/S 756 mmHg 86%
    13:00 +29°C° 1.8 mm 2 m/S 755 mmHg 88%
    14:00 +29°C° 1.8 mm 2 m/S 755 mmHg 90%
    15:00 +28°C° 1.2 mm 2 m/S 755 mmHg 91%
    16:00 +27°C° 1.2 mm 2 m/S 755 mmHg 92%
    17:00 +27°C° 1.2 mm 1 m/S 755 mmHg 93%
    18:00 +26°C° 0 mm 1 m/S 755 mmHg 94%
    19:00 +26°C° 0 mm 1 m/S 756 mmHg 96%
    20:00 +25°C° 0 mm 1 m/S 756 mmHg 97%
    21:00 +25°C° 0 mm 1 m/S 756 mmHg 97%
    22:00 +25°C° 0 mm 1 m/S 756 mmHg 98%
    23:00 +25°C° 0 mm 1 m/S 756 mmHg 98%

    19 Dezember, Donnerstag

    Zeit Temperatur Niederschläge Wind Luftdruck Luftfeuchtigkeit
    00:00 +25°C° 0 mm 1 m/S 756 mmHg 98%
    01:00 +22°C° 0 mm 0 m/S 755 mmHg 99%
    02:00 +22°C° 0 mm 0 m/S 755 mmHg 99%
    03:00 +22°C° 0 mm 0 m/S 755 mmHg 99%
    04:00 +22°C° 0 mm 0 m/S 755 mmHg 99%
    05:00 +22°C° 0 mm 0 m/S 755 mmHg 99%
    06:00 +25°C° 0 mm 1 m/S 756 mmHg 96%
    07:00 +26°C° 0 mm 1 m/S 756 mmHg 92%
    08:00 +27°C° 0 mm 1 m/S 757 mmHg 89%
    09:00 +28°C° 1.5 mm 1 m/S 757 mmHg 89%
    10:00 +28°C° 1.5 mm 1 m/S 757 mmHg 90%
    11:00 +29°C° 1.5 mm 1 m/S 757 mmHg 90%
    12:00 +29°C° 2.6 mm 1 m/S 756 mmHg 91%
    13:00 +29°C° 2.6 mm 1 m/S 756 mmHg 91%
    14:00 +29°C° 2.6 mm 1 m/S 755 mmHg 92%
    15:00 +28°C° 1.4 mm 1 m/S 755 mmHg 93%
    16:00 +27°C° 1.4 mm 1 m/S 755 mmHg 95%
    17:00 +27°C° 1.4 mm 1 m/S 755 mmHg 96%
    18:00 +26°C° 0.1 mm 1 m/S 755 mmHg 97%
    19:00 +26°C° 0.1 mm 1 m/S 756 mmHg 97%
    20:00 +25°C° 0.1 mm 1 m/S 757 mmHg 98%
    21:00 +25°C° 0 mm 1 m/S 757 mmHg 98%
    22:00 +25°C° 0 mm 1 m/S 757 mmHg 98%
    23:00 +25°C° 0 mm 1 m/S 757 mmHg 98%

    20 Dezember, Freitag

    Zeit Temperatur Niederschläge Wind Luftdruck Luftfeuchtigkeit
    00:00 +25°C° 0 mm 1 m/S 756 mmHg 98%
    01:00 +25°C° 0 mm 1 m/S 756 mmHg 98%
    02:00 +25°C° 0 mm 1 m/S 755 mmHg 98%
    03:00 +25°C° 0 mm 1 m/S 756 mmHg 98%
    04:00 +25°C° 0 mm 1 m/S 756 mmHg 98%
    05:00 +25°C° 0 mm 1 m/S 756 mmHg 97%
    06:00 +26°C° 0 mm 1 m/S 756 mmHg 93%
    07:00 +27°C° 0 mm 2 m/S 757 mmHg 89%
    08:00 +28°C° 0 mm 2 m/S 758 mmHg 84%
    09:00 +29°C° 0 mm 2 m/S 758 mmHg 76%
    10:00 +31°C° 0 mm 2 m/S 758 mmHg 67%
    11:00 +32°C° 0 mm 2 m/S 758 mmHg 59%
    12:00 +34°C° 0.1 mm 2 m/S 757 mmHg 56%
    13:00 +34°C° 0.1 mm 3 m/S 756 mmHg 54%
    14:00 +34°C° 0.1 mm 3 m/S 755 mmHg 52%
    15:00 +32°C° 0 mm 2 m/S 755 mmHg 57%
    16:00 +31°C° 0 mm 2 m/S 755 mmHg 62%
    17:00 +29°C° 0 mm 1 m/S 755 mmHg 67%
    18:00 +28°C° 0 mm 1 m/S 755 mmHg 73%
    19:00 +27°C° 0 mm 1 m/S 756 mmHg 78%
    20:00 +26°C° 0 mm 1 m/S 757 mmHg 83%
    21:00 +25°C° 0 mm 1 m/S 757 mmHg 86%
    22:00 +25°C° 0 mm 1 m/S 757 mmHg 89%
    23:00 +25°C° 0 mm 1 m/S 757 mmHg 92%
    Mehr zeigen